This is the latest recevied weather packets stored in our database for station/object N4DWK. If no packets are shown the sender has not sent any weather packets the latest 10 day(s).
| Time | Temp. | Humidity | Pressure | Rain* | Wind** | Luminosity | Snow |
|---|---|---|---|---|---|---|---|
| 1778087106 | 17.78° C | 91% | 1011 hPa | 0 mm | - | 60 W/m² | - |
| 1778086807 | 17.78° C | 90% | 1011.3 hPa | 0 mm | - | 77 W/m² | - |
| 1778086507 | 17.78° C | 90% | 1011.6 hPa | 0 mm | - | 54 W/m² | - |
| 1778086205 | 17.78° C | 91% | 1011.4 hPa | 0 mm | - | 69 W/m² | - |
| 1778085906 | 17.78° C | 91% | 1011.4 hPa | 0 mm | - | 69 W/m² | - |
| 1778085606 | 17.78° C | 91% | 1011.5 hPa | 0 mm | - | 65 W/m² | - |
| 1778085305 | 17.78° C | 91% | 1011.4 hPa | 0 mm | - | 77 W/m² | - |
| 1778085005 | 17.78° C | 91% | 1011.5 hPa | 0 mm | - | 76 W/m² | - |
| 1778084705 | 17.78° C | 91% | 1011.5 hPa | 0 mm | - | 77 W/m² | - |
| 1778084406 | 17.78° C | 92% | 1011.2 hPa | 0 mm | - | 98 W/m² | - |
| 1778084105 | 17.22° C | 92% | 1011.2 hPa | 0.25 mm | - | 97 W/m² | - |
| 1778083806 | 17.22° C | 92% | 1011.2 hPa | 0.25 mm | - | 77 W/m² | - |
| 1778083505 | 17.22° C | 92% | 1011.2 hPa | 0.25 mm | - | 63 W/m² | - |
| 1778083205 | 17.22° C | 92% | 1011.4 hPa | 0.25 mm | - | 47 W/m² | - |
| 1778082905 | 17.22° C | 92% | 1011.2 hPa | 0.25 mm | - | 42 W/m² | - |
| 1778082605 | 17.22° C | 92% | 1011.4 hPa | 0.25 mm | - | 40 W/m² | - |
| 1778082306 | 17.22° C | 92% | 1011.4 hPa | 0.25 mm | - | 46 W/m² | - |
| 1778082006 | 17.22° C | 92% | 1011.6 hPa | 0.25 mm | - | 54 W/m² | - |
| 1778081705 | 17.22° C | 92% | 1011.6 hPa | 1.27 mm | - | 69 W/m² | - |
| 1778081405 | 17.22° C | 92% | 1011.8 hPa | 1.78 mm | - | 83 W/m² | - |
| 1778081105 | 17.22° C | 93% | 1011.9 hPa | 2.29 mm | - | 84 W/m² | - |
| 1778080806 | 17.22° C | 93% | 1011.9 hPa | 2.54 mm | - | 91 W/m² | - |
| 1778080505 | 17.22° C | 92% | 1012 hPa | 2.79 mm | - | 83 W/m² | - |
| 1778080205 | 17.22° C | 92% | 1012 hPa | 3.05 mm | - | 88 W/m² | - |
| 1778079905 | 17.22° C | 92% | 1012.1 hPa | 3.3 mm | - | 53 W/m² | - |
* Rain latest hour (hover to see other rain measurements)
** Current wind speed in m/s (hover to see current wind gust speed)